Flag Weather past 2 weeks in Juneau, Alaska, U.S.A.

Now
16 °F

Passing clouds.


Feels Like: 16 °F
Forecast: 16 / 24 °F
Wind: No wind

Location: Juneau International Airport

Current Time: Nov 29, 2014 at 1:07:37 AM

Latest Report: Nov 28, 2014 at 11:53 PM


Visibility: 10 mi

Pressure: 30.17 "Hg

Humidity: 87%

Dew point: 13 °F

Location of JuneauLocation

Historic Weather in Juneau — Graph

°F

Juneau temperature yesterday

Maximum temperature yesterday: 25 °F (at 12:53 PM)
Minimum temperature yesterday: 14 °F (at 8:53 PM)
Average temperature yesterday: 19 °F

Past Weeks' High & Low Weather Summary

 TemperatureHumidityPressure
High44 °F (Nov 21, 12:53 PM)100% (Nov 15, 9:53 AM)30.50 "Hg (Nov 15, 9:53 AM)
Low14 °F (Nov 28, 8:53 PM)35% (Nov 27, 4:53 AM)29.14 "Hg (Nov 21, 11:53 AM)
Average33 °F87%29.97 "Hg
* Reported Nov 13 11:53 PM — Nov 28 11:53 PM, Juneau, Weather by CustomWeather, © 2014

Note: Actual official high and low records may vary slightly from our data, if they occured in-between our weather recording intervals... More about our weather records

Advertising

Juneau weather history for previous 24 hours

 ConditionsComfort  
Time TempWeatherWind HumidityBarometerVisibility
11:53 PM
Nov 28
16 °FPassing clouds.No wind87%30.17 "Hg10 mi
10:53 PM16 °FPassing clouds.No wind84%30.17 "Hg10 mi
9:53 PM14 °FPassing clouds.No wind92%30.18 "Hg10 mi
8:53 PM14 °FPassing clouds.No wind87%30.18 "Hg10 mi
7:53 PM16 °FPassing clouds.No wind84%30.18 "Hg10 mi
6:53 PM15 °FClear.No wind83%30.20 "Hg10 mi
5:53 PM15 °FClear.No wind77%30.20 "Hg10 mi
4:53 PM16 °FClear.No wind77%30.21 "Hg10 mi
3:53 PM17 °FClear.No wind74%30.22 "Hg10 mi
2:53 PM22 °FSunny.3 mph44%30.23 "Hg10 mi
1:53 PM24 °FSunny.7 mph38%30.25 "Hg10 mi
12:53 PM25 °FPassing clouds.7 mph40%30.27 "Hg10 mi
11:53 AM24 °FPassing clouds.No wind40%30.29 "Hg10 mi
10:53 AM24 °FPassing clouds.5 mph38%30.30 "Hg10 mi
9:53 AM22 °FPassing clouds.9 mph35%30.31 "Hg10 mi
8:53 AM19 °FPassing clouds.3 mph52%30.31 "Hg10 mi
7:53 AM20 °FClear.9 mph40%30.30 "Hg10 mi
6:53 AM21 °FClear.10 mph41%30.30 "Hg10 mi
5:53 AM21 °FClear.12 mph38%30.29 "Hg10 mi
4:53 AM21 °FClear.12 mph36%30.29 "Hg10 mi
3:53 AM21 °FClear.16 mph38%30.28 "Hg10 mi
2:53 AM21 °FClear.15 mph38%30.28 "Hg10 mi
1:53 AM21 °FClear.12 mph38%30.28 "Hg10 mi
Weather by CustomWeather, © 2014

See weather overviewHow to use our weather pages